Showing default

ORBCOMM FM 107, 40087

Orbit data source: Space-Track

ORBCOMM FM 107, 40087 is a payload satellite owned by Orbcomm (US) in LEO that was launched on Mon, 14 Jul 2014 UTC via an FALCON 9 launch vehicle from the Air Force Eastern Test Range (AFETR). Payload-class satellites include a variety of spacecraft equipped with specific instruments for various scientific and technological missions. These include communications satellites like Starlink; space stations such as the ISS; scientific satellites like the Hubble; Earth observation satellites from companies like Planet Labs, Umbra, and HawkEye 360; GPS; miniature CubeSats for education and research; and military/defense satellites.

Loading next visibility...
Identifier
40087, 2014-040B
Orbit
LEO
Last TLE update
11 hours ago
Origin
Manufacturer
SNC Louisville
Mission
Operational Commercial Communications
Bus & Motor
SN-100A, Unknown motor
Mass
172 kg wet, 158 kg dry
Launch date (UTC)
2014-07-14 (11 years ago)
Launch vehicle
FALCON 9
Launch site
Air Force Eastern Test Range (AFETR)
Object type
Payload
Rocket body
Debris
Shape & HBR
Box + 1 Pan + 1 Ant, 13 m
Radar Cross Section
2.222 m², Medium (>0.1 m² and < 1m²)

Expand to show TLE details & history

TLE from 11 hours ago
0 ORBCOMM FM 107
1 40087U 14040B   25189.93304079  .00000305  00000-0  10191-3 0  9991
2 40087  47.0052 274.5479 0001044 323.7707  36.3108 14.58271884584315
Epoch: 2025-07-08T22:23Z
TLE epoch observation values (Epoch: 2025-07-08T22:23:34.724Z)
Latitude
0.00001°
Longitude
11.5323°
Altitude
698.38 km
Speed
7.509 km/s
True Right ascension
18h 18m 11s
True Declination
0° 00' 00"
Sunlit
Object was in full shadow at epoch
Visualization orbit readout
Latitude
25.94248°
Longitude
162.64415°
Altitude
699.935 km
Speed
7.509 km/s
Apparent Right ascension
06h 22m 32s
Apparent Declination
-6° 07' 21"
Sunlit
Object is in daylight
Visualization observer readout
Local Sidereal Time
21:04:33
Azimuth
58.016° ENE
Elevation
-40.412°
Doppler factor
1
Orbital elements
Apogee altitude
700.732 km
Perigee altitude
699.254 km
Semi-major axis
7,078.13 km
Eccentricity
0.0001
Inclination
47.0052°
RAAN
274.5479°
Arg. of periapsis
323.7707°
True anomaly
Unknown
Mean anomaly
36.3108°
Eccentric anomaly
Unknown
Mean motion
3.64473 °/min
Orbital period
98.77 mins
BSTAR
0.00010191
Loading maneuver chart data...
Loading SW <> Apogee altitude chart data...
Loading historical data...
Loading historical data...
Loading historical data...
Loading historical data...
Loading historical data...
Loading historical data...
Loading historical data...

ORBCOMM FM 107 Visibility forecast

Observer location: undefined°, undefined°

Span
Click to sort rows by Start time (UTC) header in descending order
Start Az.
Max El. time (UTC)
Max El. Az.
Max El.
End time (UTC)
End Az.
9 mins2025-07-09 10:08:49.155Z262.371° W2025-07-09 10:13:49.155Z3.29° NNE38.686°2025-07-09 10:17:49.155Z57.361° ENE
7 mins2025-07-09 11:54:49.155Z306.701° NW2025-07-09 11:57:49.155Z8.383° NNE30.324°2025-07-09 12:01:49.155Z65.722° ENE
8 mins2025-07-09 13:37:49.155Z304.809° NW2025-07-09 13:41:49.155Z27.201° NE39.54°2025-07-09 13:45:49.155Z96.486° ESE
8 mins2025-07-09 15:21:49.155Z281.91° WNW2025-07-09 15:24:49.155Z229.593° WSW34.419°2025-07-09 15:29:49.155Z146.78° SSE
6 mins2025-07-10 07:26:49.155Z180.578° SSW2025-07-10 07:29:49.155Z132.126° SE23.042°2025-07-10 07:32:49.155Z88.459° E
|